Flag for Saint Helena Weather past 2 weeks in Jamestown, Saint Helena

Now
61 °F

Cool.


Feels Like: 61 °F
Forecast: N/A
Wind: 17 mph from East

Location: Saint Helena Island

Current Time: Sep 1, 2015 at 5:17:19 PM

Latest Report: Sep 1, 2015 at 4:00 PM


Visibility: N/A

Pressure: 30.11 "Hg

Humidity: 80%

Dew point: 55 °F

Location of JamestownLocation

Historic Weather in Jamestown — Graph

°F

Jamestown temperature yesterday

Maximum temperature yesterday: 63 °F (at 1:00 PM)
Minimum temperature yesterday: 57 °F (at 2:00 AM)
Average temperature yesterday: 60 °F

Past Weeks' High & Low Weather Summary

 TemperatureHumidityPressure
High65 °F (Aug 30, 2:00 PM)100% (Aug 18, 3:00 AM)30.23 "Hg (Aug 18, 3:00 AM)
Low57 °F (Aug 23, 11:00 PM)65% (Aug 30, 2:00 PM)30.05 "Hg (Aug 23, 4:00 PM)
Average59 °F87%30.13 "Hg
* Reported Aug 17 4:00 PM — Sep 1 4:00 PM, Jamestown, Weather by CustomWeather, © 2015

Note: Actual official high and low records may vary slightly from our data, if they occured in-between our weather recording intervals... More about our weather records

Advertising

Jamestown weather history for previous 24 hours

 ConditionsComfort  
Time TempWeatherWind HumidityBarometerVisibility
4:00 PM
Tue, Sep 1
61 °FCool.17 mph80%30.11 "HgN/A
3:00 PM62 °FCool.17 mph79%30.11 "HgN/A
2:00 PM60 °FCool.18 mph87%30.14 "HgN/A
1:00 PM61 °FCool.16 mph87%30.17 "HgN/A
12:00 PM62 °FCool.16 mph81%30.18 "HgN/A
11:00 AM61 °FCool.18 mph82%30.19 "HgN/A
10:00 AM62 °FCool.17 mph80%30.19 "HgN/A
9:00 AM61 °FCool.18 mph74%30.18 "HgN/A
8:00 AM60 °FCool.17 mph78%30.17 "HgN/A
7:00 AM59 °FCool.16 mph91%30.17 "HgN/A
5:00 AM58 °FCool.15 mph94%30.15 "HgN/A
4:00 AM59 °FCool.12 mph86%30.15 "HgN/A
2:00 AM59 °FCool.17 mph89%30.17 "HgN/A
1:00 AM59 °FCool.15 mph86%30.19 "HgN/A
12:00 AM59 °FCool.15 mph79%30.21 "HgN/A
11:00 PM
Mon, Aug 31
59 °FCool.15 mph80%30.21 "HgN/A
10:00 PM59 °FCool.14 mph83%30.19 "HgN/A
8:00 PM59 °FCool.14 mph78%30.16 "HgN/A
7:00 PM59 °FCool.13 mph77%30.14 "HgN/A
6:00 PM60 °FCool.16 mph75%30.13 "HgN/A
5:00 PM61 °FCool.17 mph73%30.11 "HgN/A
Weather by CustomWeather, © 2015

See weather overviewHow to use our weather pages